{"data":{"norad_id":45146,"epoch":"2026-09-20T02:53:59.610048Z","epoch_age_seconds":47157,"freshness":"FRESH","line1":"1 45146U 20008R   26263.12082882 -.00000598  00000+0 -17488-2 0  9993","line2":"2 45146  87.8908  17.3692 0002267 101.1594 258.9788 13.10374497320593","mean_motion":13.10374497,"eccentricity":0.0002267,"inclination_deg":87.8908,"raan_deg":17.3692,"arg_perigee_deg":101.1594,"mean_anomaly_deg":258.9788,"bstar":-0.0017488,"rev_number":32059,"period_min":109.89224861265,"perigee_km":1219.9877695843,"apogee_km":1223.4335405111,"semimajor_km":7599.8476550477,"source":"CELESTRAK","updated_at":"2026-09-20T09:00:44.547809Z"}}